Location: Winnipauk Village
(41.1295°N, 73.4171°W)
Time: 04:30:16
(UTC+00:00)

X-37B - Pass Details

Date: 10 August 2021
Orbit: 381 x 393 km, 45.0° (Epoch: 29 August)

Event Time Altitude Azimuth Distance (km) Brightness Sun altitude
Exits shadow 08:59:48 - 292° (WNW) 1,703 3.5 -10.7°
Reaches altitude 10° 09:00:32 10° 293° (WNW) 1,397 3.1 -10.6°
Maximum altitude 09:03:41 78° 20° (NNE) 393 0.7 -10.1°
Drops below altitude 10° 09:06:49 10° 107° (ESE) 1,393 4.0 -9.6°
Sets 09:08:53 0° 109° (ESE) 2,245 5.1 -9.2°
